This is the latest recevied weather packets stored in our database for station/object K2CCS. If no packets are shown the sender has not sent any weather packets the latest 10 day(s).
| Time | Temp. | Humidity | Pressure | Rain* | Wind** | Luminosity | Snow |
|---|---|---|---|---|---|---|---|
| 1777894190 | 8.89° C | 68% | 1013.6 hPa | 0 mm | - | 52 W/m² | - |
| 1777893887 | 8.89° C | 68% | 1013.4 hPa | 0 mm | - | 58 W/m² | - |
| 1777893583 | 8.89° C | 67% | 1013.6 hPa | 0 mm | - | 58 W/m² | - |
| 1777893279 | 8.89° C | 67% | 1013.6 hPa | 0 mm | - | 52 W/m² | - |
| 1777892976 | 8.89° C | 67% | 1013.4 hPa | 0 mm | - | 57 W/m² | - |
| 1777892673 | 8.33° C | 68% | 1013.6 hPa | 0 mm | - | 52 W/m² | - |
| 1777892369 | 8.33° C | 68% | 1013.7 hPa | 0 mm | - | 39 W/m² | - |
| 1777892065 | 8.33° C | 68% | 1013.4 hPa | 0 mm | - | 38 W/m² | - |
| 1777891762 | 8.33° C | 68% | 1013.6 hPa | 0 mm | - | 35 W/m² | - |
| 1777891458 | 8.33° C | 67% | 1013.5 hPa | 0 mm | - | 32 W/m² | - |
| 1777891155 | 8.33° C | 69% | 1013.4 hPa | 0 mm | - | 30 W/m² | - |
| 1777890849 | 7.78° C | 68% | 1013.6 hPa | 0 mm | - | 27 W/m² | - |
| 1777890545 | 7.78° C | 70% | 1013.5 hPa | 0 mm | - | 22 W/m² | - |
| 1777890241 | 7.78° C | 69% | 1013.3 hPa | 0 mm | - | 18 W/m² | - |
| 1777889937 | 7.78° C | 69% | 1013.5 hPa | 0 mm | - | 15 W/m² | - |
| 1777889635 | 8.33° C | 69% | 1013.6 hPa | 0 mm | - | 12 W/m² | - |
| 1777889332 | 8.33° C | 69% | 1013.6 hPa | 0 mm | - | 10 W/m² | - |
| 1777889029 | 7.78° C | 72% | 1013.5 hPa | 0 mm | - | 6 W/m² | - |
| 1777888727 | 7.78° C | 73% | 1013.5 hPa | 0 mm | - | 5 W/m² | - |
| 1777888422 | 8.33° C | 73% | 1013.3 hPa | 0 mm | - | 3 W/m² | - |
| 1777888119 | 8.33° C | 73% | 1013.3 hPa | 0 mm | - | 0 W/m² | - |
| 1777887817 | 8.33° C | 74% | 1013.4 hPa | 0 mm | - | 0 W/m² | - |
| 1777887513 | 8.33° C | 73% | 1013.5 hPa | 0 mm | - | 0 W/m² | - |
| 1777887209 | 8.33° C | 73% | 1013.4 hPa | 0 mm | - | 0 W/m² | - |
| 1777886905 | 8.33° C | 73% | 1013.4 hPa | 0 mm | - | 0 W/m² | - |
* Rain latest hour (hover to see other rain measurements)
** Current wind speed in m/s (hover to see current wind gust speed)